Weather History for Eagle, CO

Change the Weather History Date:

Friday, January 25, 2013

  Actual Average Record
Temperature  
Mean Temperature 38 °F -  
Max Temperature 44 °F 34 °F 52 °F (1951)
Min Temperature 33 °F 5 °F -21 °F (1962)
Degree Days  
Heating Degree Days 26    
Moisture  
Dew Point 33 °F    
Average Humidity 89    
Maximum Humidity 100    
Minimum Humidity 70    
Precipitation  
Precipitation 0.00 in - - ()
Sea Level Pressure  
Sea Level Pressure 30.23 in    
Wind  
Wind Speed 2 mph (East)    
Max Wind Speed 6 mph    
Max Gust Speed -    
Visibility 10 miles    
Events      
Averages and records for this station are not official NWS values.
T = Trace of Precipitation, MM = Missing Value Source: NWS Daily Summary

Daily Weather History Graph

Daily Weather History Graph

Search for Another Location

Airport:

Trip Planner

Search our weather history database for the weather conditions in past years. The results will help you decide how hot, cold, wet, or windy it might be!

Date:

Astronomy

Jan. 25, 2013 Rise Set
Actual Time 7:20 AM MST 5:19 PM MST
Civil Twilight 6:52 AM MST 5:48 PM MST
Nautical Twilight 6:19 AM MST 6:21 PM MST
Astronomical Twilight 5:47 AM MST 6:53 PM MST
Moon 4:19 PM MST (1/25) 6:02 AM MST (1/25)
Length of Visible Light 10h 56m
Length of Day
9h 58m
Waxing Gibbous, 98% of the Moon is Illuminated
Jan 25
Waxing Gibbous
Jan 26
Full
Feb 3
Last Quarter
Feb 10
New
Feb 17
First Quarter

Hourly Weather History & Observations

Time (MST) Temp. Windchill Dew Point Humidity Pressure Visibility Wind Dir Wind Speed Gust Speed Precip Events Conditions
12:15 AM 33.8 °F - 32.0 °F 93% 30.29 in 10.0 mi Calm Calm - N/A   Overcast
12:35 AM 33.8 °F 30.8 °F 32.0 °F 93% 30.28 in 10.0 mi WNW 3.5 mph - N/A   Overcast
12:55 AM 33.8 °F - 32.0 °F 93% 30.27 in 10.0 mi Calm Calm - N/A   Overcast
1:15 AM 33.8 °F 30.8 °F 32.0 °F 93% 30.26 in 10.0 mi East 3.5 mph - N/A   Overcast
1:35 AM 33.8 °F 28.6 °F 32.0 °F 93% 30.27 in 10.0 mi SE 5.8 mph - N/A   Overcast
1:55 AM 33.8 °F 30.8 °F 32.0 °F 93% 30.27 in 10.0 mi North 3.5 mph - N/A   Overcast
2:35 AM 33.8 °F 30.8 °F 32.0 °F 93% 30.27 in 10.0 mi South 3.5 mph - N/A   Overcast
2:55 AM 33.8 °F - 32.0 °F 93% 30.27 in 10.0 mi Calm Calm - N/A   Overcast
3:15 AM 35.6 °F 32.8 °F 33.8 °F 93% 30.27 in 10.0 mi North 3.5 mph - N/A   Overcast
3:35 AM 33.8 °F - 32.0 °F 93% 30.26 in 10.0 mi Calm Calm - N/A   Overcast
3:55 AM 33.8 °F 29.6 °F 30.2 °F 87% 30.26 in 10.0 mi ENE 4.6 mph - N/A   Overcast
4:15 AM 33.8 °F 29.6 °F 30.2 °F 87% 30.25 in 10.0 mi East 4.6 mph - N/A   Overcast
4:35 AM 33.8 °F 29.6 °F 30.2 °F 87% 30.25 in 10.0 mi East 4.6 mph - N/A   Overcast
5:15 AM 33.8 °F - 32.0 °F 93% 30.25 in 10.0 mi Calm Calm - N/A   Overcast
5:35 AM 33.8 °F - 30.2 °F 87% 30.26 in 10.0 mi Calm Calm - N/A   Overcast
5:55 AM 33.8 °F - 30.2 °F 87% 30.26 in 10.0 mi Calm Calm - N/A   Overcast
6:35 AM 33.8 °F - 30.2 °F 87% 30.27 in 10.0 mi Calm Calm - N/A   Overcast
6:50 AM 33.8 °F - 30.2 °F 87% 30.27 in 10.0 mi Calm Calm - N/A   Overcast
7:55 AM 33.8 °F - 30.2 °F 87% 30.27 in 10.0 mi Calm Calm - N/A   Overcast
8:50 AM 33.8 °F - 32.0 °F 93% 30.27 in 5.0 mi Calm Calm - N/A   Overcast
9:50 AM 35.6 °F - 33.8 °F 93% 30.28 in 5.0 mi Calm Calm - N/A   Overcast
10:57 AM 39.2 °F - 37.4 °F 93% 30.28 in 10.0 mi Calm Calm - N/A   Overcast
11:59 AM 41.0 °F - 37.4 °F 87% 30.23 in 10.0 mi Calm Calm - N/A   Overcast
12:50 PM 42.8 °F - 37.4 °F 81% 30.20 in 10.0 mi Calm Calm - N/A   Overcast
1:50 PM 42.8 °F - 35.6 °F 76% 30.18 in 10.0 mi Calm Calm - N/A   Mostly Cloudy
2:56 PM 44.6 °F - 35.6 °F 71% 30.17 in 10.0 mi Calm Calm - N/A   Overcast
3:50 PM 42.8 °F 40.1 °F 33.8 °F 70% 30.18 in 10.0 mi WSW 4.6 mph - N/A   Overcast
4:50 PM 39.2 °F 35.9 °F 33.8 °F 81% 30.17 in 10.0 mi WSW 4.6 mph - N/A   Mostly Cloudy
5:50 PM 39.2 °F - 33.8 °F 81% 30.17 in 10.0 mi Calm Calm - N/A   Overcast
6:50 PM 39.2 °F - 33.8 °F 81% 30.17 in 10.0 mi Calm Calm - N/A   Mostly Cloudy
7:50 PM 37.4 °F - 33.8 °F 87% 30.17 in 10.0 mi Calm Calm - N/A   Overcast
8:50 PM 35.6 °F - 33.8 °F 93% 30.17 in 10.0 mi Calm Calm - N/A   Overcast
9:50 PM 35.6 °F - 33.8 °F 93% 30.18 in 10.0 mi Calm Calm - N/A   Overcast
10:50 PM 35.6 °F - 33.8 °F 93% 30.18 in 10.0 mi Calm Calm - N/A   Overcast
10:55 PM 35.6 °F 31.7 °F 33.8 °F 93% 30.18 in 10.0 mi East 4.6 mph - N/A   Overcast
11:15 PM 35.6 °F - 33.8 °F 93% 30.17 in 10.0 mi Calm Calm - N/A   Overcast
11:35 PM 35.6 °F 31.7 °F 33.8 °F 93% 30.17 in 10.0 mi ENE 4.6 mph - N/A   Overcast
11:55 PM 33.8 °F - 33.8 °F 100% 30.17 in 10.0 mi Calm Calm - N/A   Overcast